Tiempo atmosférico en la estación meteorológica de Cabo Peñas, Asturias (100 m.)



Fecha
DESCASC
Temp. máxima en grados centígrados (hora)
DESCASC
Temp. mínima en grados centígrados (hora)
DESCASC
Temp. media en grados centígrados
DESCASC
Racha de viento máxima en m/sg (hora)
DESCASC
Velocidad máxima media en intervalos de 10 minutos(hora)
DESCASC
Precipitaciones diarias en mm
DESCASC
Precipitaciones de 00:00 a 06:00 en mm
DESCASC
Precipitaciones de 06:00 a 12:00 en mm
DESCASC
Precipitaciones de 12:00 a 18:00 en mm
DESCASC
Precipitaciones de 18:00 a 24:00 en mm
DESCASC
28-02-2021 12.8 (13:00) 7.7 (05:10) 10.3 14.44 (19:00) 8.33 (19:40) -- -- -- -- --
27-02-2021 12.1 (01:40) 9.5 (19:30) 10.8 16.67 (11:00) 9.44 (12:20) -- -- -- -- --
26-02-2021 12.9 (16:00) 10.9 (08:20) 11.9 13.61 (18:40) 7.22 (23:30) -- -- -- -- --
25-02-2021 12.7 (00:20) 9.5 (00:00) 11.1 13.33 (07:10) 8.33 (07:10) -- -- -- -- --
24-02-2021 19.6 (12:20) 12.6 (00:00) 16.1 10 (23:00) 6.39 (18:40) -- -- -- -- --
23-02-2021 20.3 (14:30) 8.2 (00:00) 14.2 10.56 (14:40) 5.28 (14:40) -- -- -- -- --
22-02-2021 13.5 (14:40) 7.6 (00:00) 10.5 11.67 (21:10) 7.5 (21:10) -- -- -- -- --
21-02-2021 12.8 (00:40) 7.6 (00:00) 10.2 17.22 (13:20) 8.61 (12:30) -- -- -- -- --
20-02-2021 20.7 (13:50) 12.2 (00:00) 16.5 -- (--) -- (--) -- -- -- -- --
19-02-2021 17.5 (20:10) 8.6 (00:00) 13.1 -- (--) -- (--) -- -- -- -- --
18-02-2021 14.8 (00:30) 9.6 (00:00) 12.2 -- (--) -- (--) -- -- -- -- --
17-02-2021 14.5 (21:10) 8.8 (00:00) 11.7 -- (--) -- (--) -- -- -- -- --
16-02-2021 18.4 (00:20) 10.7 (00:00) 14.5 -- (--) -- (--) -- -- -- -- --
15-02-2021 19.7 (17:50) 14.8 (00:00) 17.3 -- (--) -- (--) -- -- -- -- --
14-02-2021 18.3 (12:00) 11.1 (00:00) 14.7 -- (--) -- (--) -- -- -- -- --
13-02-2021 14.4 (22:30) 9.3 (00:00) 11.8 -- (--) -- (--) -- -- -- -- --
12-02-2021 13.4 (12:30) 11 (00:00) 12.2 -- (--) -- (--) -- -- -- -- --
11-02-2021 14.1 (13:30) 9.1 (00:00) 11.6 -- (--) -- (--) -- -- -- -- --
10-02-2021 12.3 (13:30) 7.9 (00:00) 10.1 -- (--) -- (--) -- -- -- -- --
09-02-2021 13.1 (14:50) 9.1 (00:00) 11.1 -- (--) -- (--) -- -- -- -- --
08-02-2021 13.1 (14:30) 9.3 (00:00) 11.2 -- (--) -- (--) -- -- -- -- --
07-02-2021 11.8 (22:40) 5.1 (00:00) 8.5 -- (--) -- (--) -- -- -- -- --
06-02-2021 10.5 (16:10) 7.2 (00:00) 8.8 -- (--) -- (--) -- -- -- -- --
05-02-2021 11.3 (00:40) 7.9 (00:00) 9.6 -- (--) -- (--) -- -- -- -- --
04-02-2021 13 (12:40) 9.7 (00:00) 11.3 -- (--) -- (--) -- -- -- -- --
03-02-2021 16.9 (14:40) 11.6 (00:00) 14.3 0 (00:10) 0 (00:10) -- -- -- -- --
02-02-2021 17.7 (11:40) 12 (00:00) 14.9 0 (00:10) 0 (00:10) -- -- -- -- --
01-02-2021 17.7 (17:30) 12.6 (00:00) 15.2 25.28 (04:00) 10.83 (03:20) -- -- -- -- --
31-01-2021 18.4 (15:10) 9.4 (00:00) 13.9 25 (20:50) 14.17 (20:50) -- -- -- -- --
30-01-2021 13.9 (00:00) 7 (00:00) 10.4 -- (--) -- (--) -- -- -- -- --

Gráficas

Temp. máximas Temp. mínimas Temp. medias Precipitaciones Rachas de viento máximas Velocidades máximas media en intervalos de 10 minutos

Datos horarios

Fecha y hora oficial Temperatura (ºC) Velocidad del viento (km/h) Dirección del viento Racha (km/h) Dirección de racha Precipitación (mm) Presión (hPa) Tendencia (hPa) Humedad (%)
2021-02-28 23:00:00 10.5 23 Oeste 44 Oeste 0 -- -- --
2021-02-28 22:00:00 10.6 26 Oeste 46 Oeste 0 -- -- --
2021-02-28 21:00:00 10.5 27 Oeste 47 Oeste 0 -- -- --
2021-02-28 20:00:00 10.3 28 Oeste 50 Sudoeste 0 -- -- --
2021-02-28 19:00:00 10.3 29 Oeste 52 Sudoeste 0 -- -- --
2021-02-28 18:00:00 10.3 22 Oeste 49 Noroeste 0 -- -- --
2021-02-28 17:00:00 10.6 22 Noroeste 49 Sudoeste 0 -- -- --
2021-02-28 16:00:00 11.3 27 Sur 41 Sudeste 0 -- -- --
2021-02-28 15:00:00 12.3 23 Sur 37 Sur 0 -- -- --
2021-02-28 14:00:00 10.5 23 Sur 37 Sur 0 -- -- --
2021-02-28 13:00:00 11.7 21 Sudoeste 32 Sudoeste 0 -- -- --
2021-02-28 12:00:00 10.4 15 Sudoeste 24 Sudoeste 0 -- -- --
2021-02-28 11:00:00 10 14 Sudoeste 26 Oeste 0 -- -- --
2021-02-28 10:00:00 9.8 15 Oeste 23 Oeste 0 -- -- --
2021-02-28 09:00:00 8.8 8 Oeste 15 Oeste 0 -- -- --
2021-02-28 08:00:00 9 11 Oeste 15 Oeste 0 -- -- --
2021-02-28 07:00:00 8.1 8 Oeste 17 Oeste 0 -- -- --
2021-02-28 06:00:00 8 12 Oeste 38 Oeste 0 -- -- --
2021-02-28 05:00:00 7.9 12 Oeste 19 Oeste 0 -- -- --
2021-02-28 04:00:00 8.4 15 Oeste 40 Sudoeste 0 -- -- --
2021-02-28 03:00:00 9.3 18 Sudoeste 33 Oeste 0 -- -- --
2021-02-28 02:00:00 9.2 21 Oeste 35 Oeste 0 -- -- --
2021-02-28 01:00:00 9.7 25 Oeste 47 Oeste 0 -- -- --
2021-02-28 00:00:00 9.9 29 Oeste 48 Sudoeste 0 -- -- --
2021-02-27 23:00:00 10.1 24 Oeste 46 Oeste 0 -- -- --
2021-02-27 22:00:00 9.8 28 Oeste 49 Sudoeste 0 -- -- --
2021-02-27 21:00:00 9.9 28 Sudoeste 47 Noroeste 0 -- -- --
2021-02-27 20:00:00 9.8 29 Sudoeste 47 Oeste 0 -- -- --
2021-02-27 19:00:00 9.8 26 Noroeste 52 Noroeste 0 -- -- --
2021-02-27 18:00:00 10.4 26 Norte 49 Noroeste 0 -- -- --
2021-02-27 17:00:00 10.4 27 Norte 51 Nordeste 0 -- -- --
2021-02-27 16:00:00 10.4 26 Norte 54 Nordeste 0 -- -- --
2021-02-27 15:00:00 10.6 30 Norte 53 Norte 0 -- -- --
2021-02-27 14:00:00 11 30 Norte 54 Nordeste 0 -- -- --
2021-02-27 13:00:00 10.7 32 Nordeste 58 Nordeste 0 -- -- --
2021-02-27 12:00:00 10.6 22 Nordeste 58 Este 0 -- -- --
2021-02-27 11:00:00 11.1 15 Nordeste 60 Nordeste 0 -- -- --
2021-02-27 10:00:00 11.1 31 Nordeste 57 Nordeste 0 -- -- --
2021-02-27 09:00:00 11.2 9 Oeste 55 Nordeste 0 -- -- --
2021-02-27 08:00:00 11.2 0 Calma 53 Noroeste 0 -- -- --
2021-02-27 07:00:00 11.9 26 Oeste 45 Oeste 0 -- -- --
2021-02-27 06:00:00 11.9 27 Oeste 48 Oeste 0 -- -- --
2021-02-27 05:00:00 11.8 25 Oeste 43 Oeste 0 -- -- --
2021-02-27 04:00:00 11.6 26 Oeste 45 Oeste 0 -- -- --
2021-02-27 03:00:00 11.5 23 Oeste 45 Oeste 0 -- -- --
2021-02-27 02:00:00 11.6 27 Sudoeste 44 Oeste 0 -- -- --
2021-02-27 01:00:00 11.8 26 Oeste 42 Oeste 0 -- -- --
2021-02-27 00:00:00 11.7 26 Oeste 41 Sudoeste 0 -- -- --
2021-02-26 23:00:00 11.8 24 Sudoeste 39 Sudoeste 0 -- -- --
2021-02-26 22:00:00 11.7 22 Sudoeste 38 Sudoeste 0 -- -- --
2021-02-26 21:00:00 11.6 21 Oeste 42 Oeste 0 -- -- --
2021-02-26 20:00:00 11.6 24 Oeste 43 Oeste 0 -- -- --
2021-02-26 19:00:00 11.7 24 Oeste 49 Noroeste 0 -- -- --
2021-02-26 18:00:00 11.7 24 Oeste 45 Noroeste 0 -- -- --
2021-02-26 17:00:00 11.8 25 Sur 44 Sur 0 -- -- --
2021-02-26 16:00:00 12.5 23 Sudeste 41 Sur 0 -- -- --
2021-02-26 15:00:00 12 23 Sudeste 43 Sur 0 -- -- --
2021-02-26 14:00:00 11.9 22 Sudoeste 37 Sudoeste 0 -- -- --
2021-02-26 13:00:00 12.5 22 Sudoeste 36 Sudoeste 0 -- -- --
2021-02-26 12:00:00 12.6 21 Sudoeste 29 Sudoeste 0 -- -- --
2021-02-26 11:00:00 12.1 19 Sudoeste 32 Sudoeste 0 -- -- --
2021-02-26 10:00:00 11.8 19 Sudoeste 36 Sudoeste 0 -- -- --
2021-02-26 09:00:00 11.4 19 Oeste 37 Oeste 0 -- -- --
2021-02-26 08:00:00 11.2 19 Sudoeste 36 Oeste 0 -- -- --
2021-02-26 07:00:00 11.3 21 Oeste 36 Sudoeste 0 -- -- --
2021-02-26 06:00:00 11.5 20 Sudoeste 34 Oeste 0 -- -- --
2021-02-26 05:00:00 11.4 18 Sudoeste 35 Sudoeste 0 -- -- --
2021-02-26 04:00:00 11.5 19 Sudoeste 37 Sudoeste 0 -- -- --
2021-02-26 03:00:00 11.4 18 Oeste 38 Sudoeste 0 -- -- --
2021-02-26 02:00:00 11.6 20 Oeste 33 Oeste 0 -- -- --
2021-02-26 01:00:00 11.7 18 Oeste 37 Oeste 0.1 -- -- --
2021-02-26 00:00:00 11.7 15 Oeste 32 Sudoeste 0.6 -- -- --
2021-02-25 23:00:00 11 10 Noroeste 24 Norte 2.5 -- -- --
2021-02-25 22:00:00 10.6 6 Noroeste 19 Norte 0.7 -- -- --
2021-02-25 21:00:00 10.7 8 Noroeste 34 Noroeste 0.3 -- -- --
2021-02-25 20:00:00 11.1 16 Norte 30 Noroeste 0.4 -- -- --
2021-02-25 19:00:00 10.9 8 Noroeste 28 Norte 1.7 -- -- --
2021-02-25 18:00:00 10.4 3 Norte 24 Norte 1.6 -- -- --
2021-02-25 17:00:00 10.4 4 Sudeste 16 Este 2.2 -- -- --
2021-02-25 16:00:00 10 8 Sudeste 19 Sudeste 2.9 -- -- --
2021-02-25 15:00:00 9.8 12 Sudeste 19 Sudeste 1.1 -- -- --
2021-02-25 14:00:00 9.8 9 Sudeste 16 Sudeste 0.3 -- -- --
2021-02-25 13:00:00 10 5 Sur 15 Sur 0 -- -- --
2021-02-25 12:00:00 10.4 7 Sudeste 12 Sudeste 0 -- -- --
2021-02-25 11:00:00 10.2 6 Este 12 Este 0.3 -- -- --
2021-02-25 10:00:00 10.5 10 Este 18 Sudeste 0.3 -- -- --
2021-02-25 09:00:00 10.1 12 Sudeste 28 Sudoeste 0.3 -- -- --
2021-02-25 08:00:00 10.5 17 Sudoeste 48 Sudoeste 1.5 -- -- --
2021-02-25 07:00:00 10.1 26 Sur 44 Sur 5 -- -- --
2021-02-25 06:00:00 11.6 8 Oeste 23 Noroeste 0.1 -- -- --
2021-02-25 05:00:00 11.9 11 Oeste 31 Sudoeste 0 -- -- --
2021-02-25 04:00:00 12.1 14 Sudoeste 26 Oeste 0 -- -- --
2021-02-25 03:00:00 12.1 14 Sudoeste 26 Sudoeste 0 -- -- --
2021-02-25 02:00:00 12.1 12 Sudoeste 16 Sudoeste 0 -- -- --
2021-02-25 01:00:00 12.3 7 Oeste 32 Sudoeste 0 -- -- --
2021-02-25 00:00:00 12.6 22 Sudoeste 35 Sudoeste 0 -- -- --
2021-02-24 23:00:00 13 19 Oeste 36 Oeste 0 -- -- --
2021-02-24 22:00:00 13.4 19 Sur 24 Sudoeste 0 -- -- --
2021-02-24 21:00:00 13.3 19 Sudoeste 26 Sur 0 -- -- --
2021-02-24 20:00:00 14.3 9 Este 28 Este 0 -- -- --
2021-02-24 19:00:00 14.6 22 Este 31 Este 0 -- -- --
2021-02-24 18:00:00 13.8 16 Este 23 Este 0 -- -- --
2021-02-24 17:00:00 14.4 16 Este 26 Sudeste 0 -- -- --
2021-02-24 16:00:00 16 14 Sudeste 22 Sudeste 0 -- -- --
2021-02-24 15:00:00 17.3 8 Sudeste 16 Sudeste 0 -- -- --
2021-02-24 14:00:00 16.7 7 Este 14 Este 0 -- -- --
2021-02-24 13:00:00 17.9 9 Norte 18 Oeste 0 -- -- --
2021-02-24 12:00:00 19.1 10 Oeste 23 Oeste 0 -- -- --
2021-02-24 11:00:00 17.9 8 Oeste 24 Oeste 0 -- -- --
2021-02-24 10:00:00 15.7 7 Oeste 22 Oeste 0 -- -- --
2021-02-24 09:00:00 14.5 7 Sudoeste 22 Sudoeste 0 -- -- --
2021-02-24 08:00:00 14.1 6 Sudoeste 18 Oeste 0 -- -- --
2021-02-24 07:00:00 14.6 5 Sudoeste 18 Oeste 0 -- -- --
2021-02-24 06:00:00 14.3 8 Oeste 20 Oeste 0 -- -- --
2021-02-24 05:00:00 13.6 15 Oeste 20 Oeste 0 -- -- --
2021-02-24 04:00:00 13.9 15 Oeste 26 Oeste 0 -- -- --
2021-02-24 03:00:00 14.8 6 Sudoeste 24 Sudoeste 0 -- -- --
2021-02-24 02:00:00 15.4 7 Sudoeste 23 Sur 0 -- -- --
2021-02-24 01:00:00 15.2 6 Sudoeste 27 Oeste 0 -- -- --
2021-02-24 00:00:00 15.5 11 Oeste 31 Oeste 0 -- -- --
2021-02-23 23:00:00 16 10 Sudoeste 27 Oeste 0 -- -- --
2021-02-23 22:00:00 15.6 11 Oeste 25 Oeste 0 -- -- --
2021-02-23 21:00:00 15.7 9 Oeste 28 Oeste 0 -- -- --
2021-02-23 20:00:00 17.2 7 Sudoeste 26 Sudoeste 0 -- -- --
2021-02-23 19:00:00 17.8 7 Sudoeste 24 Sudoeste 0 -- -- --
2021-02-23 18:00:00 19 6 Sudoeste 23 Sudoeste 0 -- -- --
2021-02-23 17:00:00 20 11 Sudoeste 35 Sudoeste 0 -- -- --
2021-02-23 16:00:00 19.6 14 Sudoeste 36 Sudoeste 0 -- -- --
2021-02-23 15:00:00 17.9 15 Sur 38 Sudoeste 0 -- -- --
2021-02-23 14:00:00 19.9 9 Sudoeste 27 Sudoeste 0 -- -- --
2021-02-23 13:00:00 19.2 9 Oeste 29 Oeste 0 -- -- --
2021-02-23 12:00:00 18 8 Oeste 27 Oeste 0 -- -- --
2021-02-23 11:00:00 15.7 7 Oeste 25 Oeste 0 -- -- --
2021-02-23 10:00:00 13.7 8 Oeste 22 Oeste 0 -- -- --
2021-02-23 09:00:00 11.4 8 Sudoeste 19 Sudoeste 0 -- -- --
2021-02-23 08:00:00 11.2 0 Calma 23 Sudoeste 0 -- -- --
2021-02-23 07:00:00 11 6 Sudoeste 20 Sudoeste 0 -- -- --
2021-02-23 06:00:00 11.1 4 Sudoeste 15 Sudoeste 0 -- -- --
2021-02-23 05:00:00 10.3 6 Oeste 13 Oeste 0 -- -- --
2021-02-23 04:00:00 9.7 5 Oeste 21 Sudoeste 0 -- -- --
2021-02-23 03:00:00 9.2 9 Sudoeste 19 Sudoeste 0 -- -- --
2021-02-23 02:00:00 8.8 12 Sudoeste 19 Sudoeste 0 -- -- --
2021-02-23 01:00:00 9.4 12 Sudoeste 20 Sudoeste 0 -- -- --
2021-02-23 00:00:00 8.8 14 Sudoeste 22 Sudoeste 0 -- -- --
2021-02-22 23:00:00 9.5 19 Sudoeste 40 Sur 0 -- -- --
2021-02-22 22:00:00 10.2 26 Sur 42 Sudoeste 0 -- -- --
2021-02-22 21:00:00 10.2 20 Oeste 41 Noroeste 0 -- -- --
2021-02-22 20:00:00 10.3 24 Este 42 Sur 0 -- -- --
2021-02-22 19:00:00 10.4 26 Sur 39 Sur 0 -- -- --
2021-02-22 18:00:00 10.8 19 Sudoeste 30 Sudoeste 0 -- -- --
2021-02-22 17:00:00 11.6 17 Oeste 24 Oeste 0 -- -- --
2021-02-22 16:00:00 11.8 5 Oeste 16 Sudoeste 0 -- -- --
2021-02-22 15:00:00 13.1 0 Calma 12 Sur 0 -- -- --
2021-02-22 14:00:00 11.9 6 Sudeste 12 Sudeste 0 -- -- --
2021-02-22 13:00:00 11.8 7 Este 13 Este 0 -- -- --
2021-02-22 12:00:00 12 10 Este 17 Nordeste 0 -- -- --
2021-02-22 11:00:00 -- -- -- 17 Norte -- -- -- --
2021-02-22 10:00:00 -- -- -- 21 Norte -- -- -- --
2021-02-22 09:00:00 -- -- -- 20 Norte -- -- -- --
2021-02-22 08:00:00 -- -- -- 22 Norte -- -- -- --
2021-02-22 07:00:00 -- -- -- 24 Norte -- -- -- --
2021-02-22 06:00:00 -- -- -- 31 Norte -- -- -- --
2021-02-22 05:00:00 -- -- -- 32 Norte -- -- -- --
2021-02-22 04:00:00 -- -- -- 40 Norte -- -- -- --
2021-02-22 03:00:00 -- -- -- 41 Norte -- -- -- --
2021-02-22 02:00:00 -- -- -- 29 Norte -- -- -- --
2021-02-22 01:00:00 -- -- -- 28 Norte -- -- -- --
2021-02-22 00:00:00 -- -- -- 31 Norte -- -- -- --
2021-02-21 23:00:00 -- -- -- 31 Norte -- -- -- --
2021-02-21 22:00:00 -- -- -- 22 Norte -- -- -- --
2021-02-21 21:00:00 -- -- -- 19 Norte -- -- -- --
2021-02-21 20:00:00 -- -- -- 17 Norte -- -- -- --
2021-02-21 19:00:00 -- -- -- 20 Norte -- -- -- --
2021-02-21 18:00:00 -- -- -- 32 Norte -- -- -- --
2021-02-21 17:00:00 -- -- -- 32 Norte -- -- -- --
2021-02-21 16:00:00 -- -- -- 33 Norte -- -- -- --
2021-02-21 15:00:00 8.3 17 Este 44 Sur 0.6 -- -- --
2021-02-21 14:00:00 8 21 Oeste 62 Sudeste 1.1 -- -- --
2021-02-21 13:00:00 8.5 15 Sudoeste 58 Norte 2.4 -- -- --
2021-02-21 12:00:00 8.7 12 Este 52 Nordeste 1.2 -- -- --
2021-02-21 11:00:00 9.9 -- -- -- -- 0.2 -- -- --
2021-02-21 10:00:00 10 -- -- -- -- 0.2 -- -- --
2021-02-21 09:00:00 9.9 -- -- -- -- 0.7 -- -- --
2021-02-21 08:00:00 9.8 -- -- -- -- 0.1 -- -- --
2021-02-21 07:00:00 10.3 -- -- -- -- 0 -- -- --
2021-02-21 06:00:00 11.7 -- -- -- -- 0 -- -- --
2021-02-21 05:00:00 11.8 -- -- -- -- 0 -- -- --
2021-02-21 04:00:00 12 -- -- -- -- 0 -- -- --
2021-02-21 03:00:00 12 -- -- -- -- 0 -- -- --
2021-02-21 02:00:00 12.1 -- -- -- -- 0 -- -- --
2021-02-21 01:00:00 12.4 -- -- -- -- 0 -- -- --
2021-02-21 00:00:00 12.3 -- -- -- -- 0 -- -- --
2021-02-20 23:00:00 12.4 -- -- -- -- 0 -- -- --
2021-02-20 22:00:00 12.4 -- -- -- -- 0 -- -- --
2021-02-20 21:00:00 12.6 -- -- -- -- 0 -- -- --
2021-02-20 20:00:00 12.6 -- -- -- -- 0 -- -- --
2021-02-20 19:00:00 17.1 -- -- -- -- 0 -- -- --
2021-02-20 18:00:00 17.8 -- -- -- -- 0 -- -- --
2021-02-20 17:00:00 18.4 -- -- -- -- 0 -- -- --
2021-02-20 16:00:00 19.2 -- -- -- -- 0 -- -- --
2021-02-20 15:00:00 19.9 -- -- -- -- 0 -- -- --
2021-02-20 14:00:00 20.1 -- -- -- -- 0 -- -- --
2021-02-20 13:00:00 20.1 -- -- -- -- 0 -- -- --
2021-02-20 12:00:00 17.9 -- -- -- -- 0 -- -- --
2021-02-20 11:00:00 17.6 -- -- -- -- 0 -- -- --
2021-02-20 10:00:00 16 -- -- -- -- 0 -- -- --
2021-02-20 09:00:00 15.9 -- -- -- -- 0 -- -- --
2021-02-20 08:00:00 15.9 -- -- -- -- 0 -- -- --
2021-02-20 07:00:00 15.9 -- -- -- -- 0 -- -- --
2021-02-20 06:00:00 16.5 -- -- -- -- 0 -- -- --
2021-02-20 05:00:00 16.5 -- -- -- -- 0 -- -- --
2021-02-20 04:00:00 16.1 -- -- -- -- 0 -- -- --
2021-02-20 03:00:00 16.8 -- -- -- -- 0 -- -- --
2021-02-20 02:00:00 17.4 -- -- -- -- 0 -- -- --
2021-02-20 01:00:00 17.3 -- -- -- -- 0 -- -- --
2021-02-20 00:00:00 16.1 -- -- -- -- 0 -- -- --
2021-02-19 23:00:00 15.8 -- -- -- -- 0 -- -- --
2021-02-19 22:00:00 16.4 -- -- -- -- 0 -- -- --
2021-02-19 21:00:00 16.8 -- -- -- -- 0 -- -- --
2021-02-19 20:00:00 17.2 -- -- -- -- 0 -- -- --
2021-02-19 19:00:00 16.7 -- -- -- -- 0 -- -- --
2021-02-19 18:00:00 16.9 -- -- -- -- 0 -- -- --
2021-02-19 17:00:00 16.4 -- -- -- -- 0 -- -- --
2021-02-19 16:00:00 15.3 -- -- -- -- 0 -- -- --
2021-02-19 15:00:00 14.2 -- -- -- -- 0 -- -- --
2021-02-19 14:00:00 14.4 -- -- -- -- 0 -- -- --
2021-02-19 13:00:00 13 -- -- -- -- 0 -- -- --
2021-02-19 12:00:00 12.5 -- -- -- -- 0 -- -- --
2021-02-19 11:00:00 10.6 -- -- -- -- 0 -- -- --
2021-02-19 10:00:00 10.4 -- -- -- -- 0 -- -- --
2021-02-19 09:00:00 9.8 -- -- -- -- 0 -- -- --
2021-02-19 08:00:00 10.3 -- -- -- -- 0 -- -- --
2021-02-19 07:00:00 9.5 -- -- -- -- 0 -- -- --
2021-02-19 06:00:00 9.4 -- -- -- -- 0 -- -- --
2021-02-19 05:00:00 9.1 -- -- -- -- 0 -- -- --
2021-02-19 04:00:00 9.5 -- -- -- -- 0 -- -- --
2021-02-19 03:00:00 9.5 -- -- -- -- 0 -- -- --
2021-02-19 02:00:00 9.7 -- -- -- -- 0 -- -- --
2021-02-19 01:00:00 9.1 -- -- -- -- 0 -- -- --
2021-02-19 00:00:00 9.6 -- -- -- -- 0 -- -- --
2021-02-18 23:00:00 10.1 -- -- -- -- 0 -- -- --
2021-02-18 22:00:00 10.3 -- -- -- -- 0 -- -- --
2021-02-18 21:00:00 10.6 -- -- -- -- 0 -- -- --
2021-02-18 20:00:00 9.8 -- -- -- -- 0 -- -- --
2021-02-18 19:00:00 9.8 -- -- -- -- 0 -- -- --
2021-02-18 18:00:00 11.1 -- -- -- -- 0 -- -- --
2021-02-18 17:00:00 11.5 -- -- -- -- 0 -- -- --
2021-02-18 16:00:00 11.6 -- -- -- -- 0 -- -- --
2021-02-18 15:00:00 11.8 -- -- -- -- 0 -- -- --
2021-02-18 14:00:00 11.8 -- -- -- -- 0 -- -- --
2021-02-18 13:00:00 11.7 -- -- -- -- 0 -- -- --
2021-02-18 12:00:00 10.7 -- -- -- -- 0.2 -- -- --
2021-02-18 11:00:00 10.6 0 Calma -- -- 0.4 -- -- --
2021-02-18 10:00:00 10.3 0 Calma -- -- 0.7 -- -- --
2021-02-18 09:00:00 10.5 0 Calma -- -- 2.2 -- -- --
2021-02-18 08:00:00 11.3 0 Calma -- -- 0 -- -- --
2021-02-18 07:00:00 13.1 0 Calma -- -- 0.1 -- -- --
2021-02-18 06:00:00 12.5 5 Norte 42 Noroeste 0.3 -- -- --
2021-02-18 05:00:00 12.7 23 Nordeste 38 Nordeste 0.1 -- -- --
2021-02-18 04:00:00 13.7 14 Nordeste 24 Norte 0 -- -- --
2021-02-18 03:00:00 13.9 15 Norte 22 Norte 0 -- -- --
2021-02-18 02:00:00 13.4 6 Oeste 17 Sudoeste 0 -- -- --
2021-02-18 01:00:00 14.1 9 Sudoeste 33 Noroeste 0 -- -- --
2021-02-18 00:00:00 13.4 7 Sudoeste 21 Sudoeste 0 -- -- --
2021-02-17 23:00:00 12.7 7 Este 13 Norte 0 -- -- --
2021-02-17 22:00:00 13.2 8 Nordeste 20 Noroeste 0 -- -- --
2021-02-17 21:00:00 14 7 Oeste 19 Sudoeste 0 -- -- --
2021-02-17 20:00:00 11.5 17 Sudoeste 28 Sudoeste 0 -- -- --
2021-02-17 19:00:00 11.3 22 Sudoeste 28 Sudoeste 0 -- -- --
2021-02-17 18:00:00 11.8 16 Sudoeste 25 Sudoeste 0 -- -- --
2021-02-17 17:00:00 12.3 12 Sudoeste 17 Sudoeste 0 -- -- --
2021-02-17 16:00:00 12.1 10 Sudoeste 17 Sudoeste 0 -- -- --
2021-02-17 15:00:00 12.6 14 Sudoeste 21 Sudoeste 0 -- -- --
2021-02-17 14:00:00 13.2 14 Sudoeste 18 Sudoeste 0 -- -- --
2021-02-17 13:00:00 -- -- -- 14 Norte -- -- -- --
2021-02-17 12:00:00 -- -- -- 10 Norte -- -- -- --
2021-02-17 11:00:00 -- -- -- 10 Norte -- -- -- --
2021-02-17 10:00:00 -- -- -- 10 Norte -- -- -- --
2021-02-17 09:00:00 -- -- -- 10 Norte -- -- -- --
2021-02-17 08:00:00 -- -- -- 10 Oeste -- -- -- --
2021-02-17 07:00:00 -- -- -- 10 Norte -- -- -- --
2021-02-17 06:00:00 -- -- -- 7 Norte -- -- -- --
2021-02-17 05:00:00 -- -- -- -- -- -- -- -- --
2021-02-17 04:00:00 -- -- -- 5 Norte -- -- -- --
2021-02-17 03:00:00 -- -- -- 7 Norte -- -- -- --
2021-02-17 02:00:00 -- -- -- 5 Norte -- -- -- --
2021-02-17 01:00:00 -- -- -- 6 Norte -- -- -- --
2021-02-17 00:00:00 -- -- -- 9 Norte -- -- -- --
2021-02-16 23:00:00 -- -- -- 9 Norte -- -- -- --
2021-02-16 22:00:00 -- -- -- 12 Norte -- -- -- --
2021-02-16 21:00:00 -- -- -- 9 Norte -- -- -- --
2021-02-16 20:00:00 -- -- -- 10 Norte -- -- -- --
2021-02-16 19:00:00 -- -- -- 13 Norte -- -- -- --
2021-02-16 18:00:00 -- -- -- 14 Nordeste -- -- -- --
2021-02-16 17:00:00 14.2 8 Este 18 Este 0 -- -- --
2021-02-16 16:00:00 15 6 Este 15 Nordeste 0 -- -- --
2021-02-16 15:00:00 14.9 6 Este 17 Noroeste 0 -- -- --
2021-02-16 14:00:00 14.4 8 Noroeste 21 Noroeste 0 -- -- --
2021-02-16 13:00:00 12.4 -- -- -- -- 0 -- -- --
2021-02-16 12:00:00 11.7 -- -- -- -- 0.9 -- -- --
2021-02-16 11:00:00 11.1 -- -- -- -- 0.1 -- -- --
2021-02-16 10:00:00 11.4 -- -- -- -- 0 -- -- --
2021-02-16 09:00:00 11.6 -- -- -- -- 0 -- -- --
2021-02-16 08:00:00 12.9 -- -- -- -- 0 -- -- --
2021-02-16 07:00:00 12.4 -- -- -- -- 0 -- -- --
2021-02-16 06:00:00 12.6 -- -- -- -- 0 -- -- --
2021-02-16 05:00:00 14 -- -- -- -- 0 -- -- --
2021-02-16 04:00:00 14.4 -- -- -- -- 0 -- -- --
2021-02-16 03:00:00 14.3 -- -- -- -- 0 -- -- --
2021-02-16 02:00:00 17.7 -- -- -- -- 0 -- -- --
2021-02-16 01:00:00 18.1 -- -- -- -- 0 -- -- --
2021-02-16 00:00:00 17.9 -- -- -- -- 0 -- -- --
2021-02-15 23:00:00 18.2 -- -- -- -- 0 -- -- --
2021-02-15 22:00:00 18.3 -- -- -- -- 0 -- -- --
2021-02-15 21:00:00 18.9 -- -- -- -- 0 -- -- --
2021-02-15 20:00:00 19.3 -- -- -- -- 0 -- -- --
2021-02-15 19:00:00 19.1 -- -- -- -- 0 -- -- --
2021-02-15 18:00:00 19.6 -- -- -- -- 0 -- -- --
2021-02-15 17:00:00 18.3 -- -- -- -- 0 -- -- --
2021-02-15 16:00:00 18.4 -- -- -- -- 0 -- -- --
2021-02-15 15:00:00 17.6 -- -- -- -- 0 -- -- --
2021-02-15 14:00:00 17.7 -- -- -- -- 0 -- -- --
2021-02-15 13:00:00 18.1 -- -- -- -- 0 -- -- --
2021-02-15 12:00:00 18 -- -- -- -- 0 -- -- --
2021-02-15 11:00:00 17.6 -- -- -- -- 0 -- -- --
2021-02-15 10:00:00 16.8 -- -- -- -- 0 -- -- --
2021-02-15 09:00:00 17 -- -- -- -- 0 -- -- --
2021-02-15 08:00:00 17.7 -- -- -- -- 0 -- -- --
2021-02-15 07:00:00 17.9 -- -- -- -- 0 -- -- --
2021-02-15 06:00:00 19.3 -- -- -- -- 0 -- -- --
2021-02-15 05:00:00 19.2 -- -- -- -- 0 -- -- --
2021-02-15 04:00:00 18.1 -- -- -- -- 0 -- -- --
2021-02-15 03:00:00 17.9 -- -- -- -- 0 -- -- --
2021-02-15 02:00:00 17.9 -- -- -- -- 0 -- -- --
2021-02-15 01:00:00 17.6 -- -- -- -- 0 -- -- --
2021-02-15 00:00:00 17.7 -- -- -- -- 0 -- -- --
2021-02-14 23:00:00 17.8 -- -- -- -- 0 -- -- --
2021-02-14 22:00:00 17.8 -- -- -- -- 0 -- -- --
2021-02-14 21:00:00 17.7 -- -- -- -- 0 -- -- --
2021-02-14 20:00:00 17.5 -- -- -- -- 0 -- -- --
2021-02-14 19:00:00 17.7 -- -- -- -- 0 -- -- --
2021-02-14 18:00:00 16.9 -- -- -- -- 0 -- -- --
2021-02-14 17:00:00 16.2 -- -- -- -- 0 -- -- --
2021-02-14 16:00:00 16.2 -- -- -- -- 0 -- -- --
2021-02-14 15:00:00 17.1 -- -- -- -- 0 -- -- --
2021-02-14 14:00:00 15.6 -- -- -- -- 0 -- -- --
2021-02-14 13:00:00 17 -- -- -- -- 0 -- -- --
2021-02-14 12:00:00 18.2 -- -- -- -- 0 -- -- --
2021-02-14 11:00:00 17.4 -- -- -- -- 0 -- -- --
2021-02-14 10:00:00 14.6 -- -- -- -- 0 -- -- --
2021-02-14 09:00:00 14.2 -- -- -- -- 0 -- -- --
2021-02-14 08:00:00 13.8 -- -- -- -- 0 -- -- --
2021-02-14 07:00:00 13.3 -- -- -- -- 0 -- -- --
2021-02-14 06:00:00 11.8 -- -- -- -- 0 -- -- --
2021-02-14 05:00:00 12.3 -- -- -- -- 0 -- -- --
2021-02-14 04:00:00 12.4 -- -- -- -- 0 -- -- --
2021-02-14 03:00:00 12.4 -- -- -- -- 0 -- -- --
2021-02-14 02:00:00 13.9 -- -- -- -- 0 -- -- --
2021-02-14 01:00:00 14.2 -- -- -- -- 0 -- -- --
2021-02-14 00:00:00 13.9 -- -- -- -- 0 -- -- --
2021-02-13 23:00:00 14.1 -- -- -- -- 0 -- -- --
2021-02-13 22:00:00 13.4 -- -- -- -- 0 -- -- --
2021-02-13 21:00:00 13.2 -- -- -- -- 0 -- -- --
2021-02-13 20:00:00 13.5 -- -- -- -- 0 -- -- --
2021-02-13 19:00:00 13.3 -- -- -- -- 0 -- -- --
2021-02-13 18:00:00 13.5 -- -- -- -- 0 -- -- --
2021-02-13 17:00:00 13.3 -- -- -- -- 0 -- -- --
2021-02-13 16:00:00 13.1 -- -- -- -- 0 -- -- --
2021-02-13 15:00:00 12.8 -- -- -- -- 0 -- -- --
2021-02-13 14:00:00 13.2 -- -- -- -- 0 -- -- --
2021-02-13 13:00:00 13.1 -- -- -- -- 0 -- -- --
2021-02-13 08:00:00 10.3 -- -- -- -- 0 -- -- --
2021-02-13 07:00:00 11.3 -- -- -- -- 0 -- -- --
2021-02-13 06:00:00 10.2 -- -- -- -- 0 -- -- --
2021-02-13 05:00:00 11.5 -- -- -- -- 0 -- -- --
2021-02-13 04:00:00 10.7 -- -- -- -- 0 -- -- --
2021-02-13 03:00:00 11.1 -- -- -- -- 0 -- -- --
2021-02-13 02:00:00 11 -- -- -- -- 0 -- -- --
2021-02-13 01:00:00 11.4 -- -- -- -- 0 -- -- --
2021-02-13 00:00:00 11.7 -- -- -- -- 0 -- -- --
2021-02-12 23:00:00 11.4 -- -- -- -- 0 -- -- --
2021-02-12 22:00:00 11.2 -- -- -- -- 0 -- -- --
2021-02-12 21:00:00 11.6 -- -- -- -- 0 -- -- --
2021-02-12 20:00:00 11.6 -- -- -- -- 0 -- -- --
2021-02-12 19:00:00 11.8 -- -- -- -- 0 -- -- --
2021-02-12 18:00:00 12.4 -- -- -- -- 0 -- -- --
2021-02-12 17:00:00 12.5 -- -- -- -- 0 -- -- --
2021-02-12 16:00:00 12.8 -- -- -- -- 0 -- -- --
2021-02-12 15:00:00 12.7 -- -- -- -- 0 -- -- --
2021-02-12 14:00:00 13.1 -- -- -- -- 0 -- -- --
2021-02-12 13:00:00 13.3 -- -- -- -- 0 -- -- --
2021-02-12 12:00:00 12.6 -- -- -- -- 0 -- -- --
2021-02-12 11:00:00 12.3 -- -- -- -- 0 -- -- --
2021-02-12 10:00:00 12 -- -- -- -- 0.1 -- -- --
2021-02-12 09:00:00 11.5 -- -- -- -- 0 -- -- --
2021-02-12 08:00:00 11.7 -- -- -- -- 0.3 -- -- --
2021-02-12 07:00:00 11.7 -- -- -- -- 0.1 -- -- --
2021-02-12 06:00:00 11.6 -- -- -- -- 1.4 -- -- --
2021-02-12 05:00:00 12.3 -- -- -- -- 0 -- -- --
2021-02-12 04:00:00 12.4 -- -- -- -- 0.1 -- -- --
2021-02-12 03:00:00 12.6 -- -- -- -- 0.4 -- -- --
2021-02-12 02:00:00 11.8 -- -- -- -- 2.3 -- -- --
2021-02-12 01:00:00 12.3 -- -- -- -- 2.4 -- -- --
2021-02-12 00:00:00 12.4 -- -- -- -- 2.4 -- -- --
2021-02-11 23:00:00 12.7 -- -- -- -- 1.3 -- -- --
2021-02-11 22:00:00 12 -- -- -- -- 0.5 -- -- --
2021-02-11 21:00:00 12.4 -- -- -- -- 0.4 -- -- --
2021-02-11 20:00:00 12.4 -- -- -- -- 0.3 -- -- --
2021-02-11 19:00:00 12.7 -- -- -- -- 0 -- -- --
2021-02-11 18:00:00 12.6 -- -- -- -- 0.1 -- -- --
2021-02-11 17:00:00 13.2 -- -- -- -- 0.3 -- -- --
2021-02-11 16:00:00 13.7 -- -- -- -- 0.3 -- -- --
2021-02-11 15:00:00 13.3 -- -- -- -- 0.8 -- -- --
2021-02-11 14:00:00 13.8 -- -- -- -- 1.4 -- -- --
2021-02-11 13:00:00 13.6 -- -- -- -- 0.4 -- -- --
2021-02-11 12:00:00 13.2 -- -- -- -- 0.7 -- -- --
2021-02-11 11:00:00 12 -- -- -- -- 0.3 -- -- --
2021-02-11 10:00:00 12.6 -- -- -- -- 0.1 -- -- --
2021-02-11 09:00:00 11.3 -- -- -- -- 0 -- -- --
2021-02-11 08:00:00 9.6 -- -- -- -- 0 -- -- --
2021-02-11 07:00:00 9.6 -- -- -- -- 0 -- -- --
2021-02-11 06:00:00 9.7 -- -- -- -- 0.3 -- -- --
2021-02-11 05:00:00 9.5 -- -- -- -- 1.2 -- -- --
2021-02-11 04:00:00 9.8 -- -- -- -- 1.1 -- -- --
2021-02-11 03:00:00 10.2 -- -- -- -- 0 -- -- --
2021-02-11 02:00:00 10.4 -- -- -- -- 0 -- -- --
2021-02-11 01:00:00 10.5 -- -- -- -- 0 -- -- --
2021-02-11 00:00:00 10.2 -- -- -- -- 0 -- -- --
2021-02-10 23:00:00 10.2 -- -- -- -- 0 -- -- --
2021-02-10 22:00:00 10.3 -- -- -- -- 0 -- -- --
2021-02-10 21:00:00 10.3 -- -- -- -- 0 -- -- --
2021-02-10 20:00:00 10.9 -- -- -- -- 0 -- -- --
2021-02-10 19:00:00 10.9 -- -- -- -- 0 -- -- --
2021-02-10 18:00:00 11.4 -- -- -- -- 0 -- -- --
2021-02-10 17:00:00 11.7 -- -- -- -- 0 -- -- --
2021-02-10 16:00:00 11.5 -- -- -- -- 0 -- -- --
2021-02-10 15:00:00 11.8 -- -- -- -- 0 -- -- --
2021-02-10 14:00:00 12.1 -- -- -- -- 0 -- -- --
2021-02-10 13:00:00 11.8 -- -- -- -- 0 -- -- --
2021-02-10 12:00:00 11.4 -- -- -- -- 0 -- -- --
2021-02-10 11:00:00 10.6 -- -- -- -- 0 -- -- --
2021-02-10 10:00:00 10 -- -- -- -- 0 -- -- --
2021-02-10 09:00:00 9.2 -- -- -- -- 0 -- -- --
2021-02-10 08:00:00 8.7 -- -- -- -- 0.4 -- -- --
2021-02-10 07:00:00 8.8 -- -- -- -- 0.4 -- -- --
2021-02-10 06:00:00 9.9 -- -- -- -- 0 -- -- --
2021-02-10 05:00:00 9.4 -- -- -- -- 0 -- -- --
2021-02-10 04:00:00 8.6 -- -- -- -- 0.2 -- -- --
2021-02-10 03:00:00 8 -- -- -- -- 1.4 -- -- --
2021-02-10 02:00:00 9.1 -- -- -- -- 0.3 -- -- --
2021-02-10 01:00:00 10.9 -- -- -- -- 0.1 -- -- --
2021-02-10 00:00:00 10.2 -- -- -- -- 0 -- -- --
2021-02-09 23:00:00 9.9 -- -- -- -- 0 -- -- --
2021-02-09 22:00:00 10.2 -- -- -- -- 0.1 -- -- --
2021-02-09 21:00:00 9.7 -- -- -- -- 0 -- -- --
2021-02-09 20:00:00 10.5 -- -- -- -- 0 -- -- --
2021-02-09 19:00:00 12.1 -- -- -- -- 0 -- -- --
2021-02-09 18:00:00 11.3 -- -- -- -- 0 -- -- --
2021-02-09 17:00:00 12.2 -- -- -- -- 0 -- -- --
2021-02-09 16:00:00 12 -- -- -- -- 0 -- -- --
2021-02-09 15:00:00 12.4 -- -- -- -- 0 -- -- --
2021-02-09 14:00:00 11.4 -- -- -- -- 0 -- -- --
2021-02-09 13:00:00 12 -- -- -- -- 0 -- -- --
2021-02-09 12:00:00 10.6 -- -- -- -- 0 -- -- --
2021-02-09 11:00:00 10.5 -- -- -- -- 0 -- -- --
2021-02-09 10:00:00 10.3 -- -- -- -- 0.4 -- -- --
2021-02-09 09:00:00 10.2 -- -- -- -- 0.4 -- -- --
2021-02-09 08:00:00 10.1 -- -- -- -- 0.1 -- -- --
2021-02-09 07:00:00 10 -- -- -- -- 0 -- -- --
2021-02-09 06:00:00 10.2 -- -- -- -- 0 -- -- --
2021-02-09 05:00:00 9.9 -- -- -- -- 0.1 -- -- --
2021-02-09 04:00:00 9.4 -- -- -- -- 1 -- -- --
2021-02-09 03:00:00 10 -- -- -- -- 1 -- -- --
2021-02-09 02:00:00 10.3 -- -- -- -- 0.5 -- -- --
2021-02-09 01:00:00 11.9 -- -- -- -- 0 -- -- --
2021-02-09 00:00:00 11.1 -- -- -- -- 0 -- -- --
2021-02-08 23:00:00 11.9 -- -- -- -- 0 -- -- --
2021-02-08 22:00:00 10.8 -- -- -- -- 0 -- -- --
2021-02-08 21:00:00 10.6 -- -- -- -- 0 -- -- --
2021-02-08 20:00:00 11 -- -- -- -- 0 -- -- --
2021-02-08 19:00:00 11.3 -- -- -- -- 0 -- -- --
2021-02-08 18:00:00 11.3 -- -- -- -- 0 -- -- --
2021-02-08 17:00:00 11.3 -- -- -- -- 0 -- -- --
2021-02-08 16:00:00 11.5 -- -- -- -- 0 -- -- --
2021-02-08 15:00:00 13 -- -- -- -- 0 -- -- --
2021-02-08 14:00:00 12.5 -- -- -- -- 0 -- -- --
2021-02-08 13:00:00 12.3 -- -- -- -- 0 -- -- --
2021-02-08 12:00:00 12.4 -- -- -- -- 0 -- -- --
2021-02-08 11:00:00 11.9 -- -- -- -- 0 -- -- --
2021-02-08 10:00:00 10.9 -- -- -- -- 0 -- -- --
2021-02-08 09:00:00 10.3 -- -- -- -- 0 -- -- --
2021-02-08 08:00:00 10.5 -- -- -- -- 0 -- -- --
2021-02-08 07:00:00 9.6 -- -- -- -- 0 -- -- --
2021-02-08 06:00:00 9.9 -- -- -- -- 0 -- -- --
2021-02-08 05:00:00 10.3 -- -- -- -- 0 -- -- --
2021-02-08 04:00:00 10.5 -- -- -- -- 0 -- -- --
2021-02-08 03:00:00 11 -- -- -- -- 0.2 -- -- --
2021-02-08 02:00:00 11.4 -- -- -- -- 0.2 -- -- --
2021-02-08 01:00:00 11.3 -- -- -- -- 0.9 -- -- --
2021-02-08 00:00:00 11.3 -- -- -- -- 0.3 -- -- --
2021-02-07 23:00:00 11.5 -- -- -- -- 0.5 -- -- --
2021-02-07 22:00:00 10.4 -- -- -- -- 0.2 -- -- --
2021-02-07 21:00:00 10.2 -- -- -- -- 0 -- -- --
2021-02-07 20:00:00 10.7 -- -- -- -- 0 -- -- --
2021-02-07 19:00:00 7.9 -- -- -- -- 0 -- -- --
2021-02-07 18:00:00 7.9 -- -- -- -- 0.1 -- -- --
2021-02-07 17:00:00 7.9 -- -- -- -- 0.2 -- -- --
2021-02-07 16:00:00 7.8 -- -- -- -- 1.1 -- -- --
2021-02-07 15:00:00 8.1 -- -- -- -- 0.3 -- -- --
2021-02-07 14:00:00 8.7 -- -- -- -- 0 -- -- --
2021-02-07 13:00:00 8.7 -- -- -- -- 0 -- -- --
2021-02-07 12:00:00 8.7 -- -- -- -- 0 -- -- --
2021-02-07 11:00:00 8.3 -- -- -- -- 0.1 -- -- --
2021-02-07 10:00:00 7.8 -- -- -- -- 0 -- -- --
2021-02-07 09:00:00 6.2 -- -- -- -- 0 -- -- --
2021-02-07 08:00:00 5.6 -- -- -- -- 0 -- -- --
2021-02-07 07:00:00 5.7 -- -- -- -- 0 -- -- --
2021-02-07 06:00:00 6.2 -- -- -- -- 0 -- -- --
2021-02-07 05:00:00 6.3 -- -- -- -- 0 -- -- --
2021-02-07 04:00:00 6.2 -- -- -- -- 0 -- -- --
2021-02-07 03:00:00 6 -- -- -- -- 0 -- -- --
2021-02-07 02:00:00 5.5 -- -- -- -- 0 -- -- --
2021-02-07 01:00:00 6.2 -- -- -- -- 0.2 -- -- --
2021-02-07 00:00:00 7.8 -- -- -- -- 0 -- -- --
2021-02-06 23:00:00 8.3 -- -- -- -- 0 -- -- --
2021-02-06 22:00:00 8.8 -- -- -- -- 0 -- -- --
2021-02-06 21:00:00 8.6 -- -- -- -- 0.1 -- -- --
2021-02-06 20:00:00 8.6 -- -- -- -- 0 -- -- --
2021-02-06 19:00:00 9.2 -- -- -- -- 0 -- -- --
2021-02-06 18:00:00 9 -- -- -- -- 0.1 -- -- --
2021-02-06 17:00:00 9.5 -- -- -- -- 0 -- -- --
2021-02-06 16:00:00 10.1 -- -- -- -- 0 -- -- --
2021-02-06 15:00:00 9.8 -- -- -- -- 0 -- -- --
2021-02-06 14:00:00 9.5 -- -- -- -- 0.2 -- -- --
2021-02-06 13:00:00 9.4 -- -- -- -- 0.1 -- -- --
2021-02-06 12:00:00 9.3 -- -- -- -- 0.6 -- -- --
2021-02-06 11:00:00 8.9 -- -- -- -- 0.5 -- -- --
2021-02-06 10:00:00 9 -- -- -- -- 0.6 -- -- --
2021-02-06 09:00:00 9.8 -- -- -- -- 1.6 -- -- --
2021-02-06 08:00:00 9.4 -- -- -- -- 3.6 -- -- --
2021-02-06 07:00:00 9.4 -- -- -- -- 0.9 -- -- --
2021-02-06 06:00:00 9.5 -- -- -- -- 0.9 -- -- --
2021-02-06 05:00:00 9.4 -- -- -- -- 1.1 -- -- --
2021-02-06 04:00:00 9.1 -- -- -- -- 2.8 -- -- --
2021-02-06 03:00:00 9.4 -- -- -- -- 0.4 -- -- --
2021-02-06 02:00:00 9.4 -- -- -- -- 0.2 -- -- --
2021-02-06 01:00:00 9.7 -- -- -- -- 0.7 -- -- --
2021-02-06 00:00:00 9.6 -- -- -- -- 0.9 -- -- --
2021-02-05 23:00:00 9.7 -- -- -- -- 0.7 -- -- --
2021-02-05 22:00:00 9.6 -- -- -- -- 1.3 -- -- --
2021-02-05 21:00:00 10 -- -- -- -- 2.1 -- -- --
2021-02-05 20:00:00 9.8 -- -- -- -- 1.1 -- -- --
2021-02-05 19:00:00 10.1 -- -- -- -- 0.5 -- -- --
2021-02-05 18:00:00 10.2 -- -- -- -- 0.5 -- -- --
2021-02-05 17:00:00 10 -- -- -- -- 0.7 -- -- --
2021-02-05 16:00:00 10 -- -- -- -- 0.9 -- -- --
2021-02-05 15:00:00 10 -- -- -- -- 0.9 -- -- --
2021-02-05 14:00:00 10 -- -- -- -- 0.8 -- -- --
2021-02-05 13:00:00 10.2 -- -- -- -- 0.6 -- -- --
2021-02-05 12:00:00 10.1 -- -- -- -- 0.5 -- -- --
2021-02-05 11:00:00 10.2 -- -- -- -- 1 -- -- --
2021-02-05 10:00:00 10.5 -- -- -- -- 0 -- -- --
2021-02-05 09:00:00 10.2 -- -- -- -- 0 -- -- --
2021-02-05 08:00:00 9.5 -- -- -- -- 0 -- -- --
2021-02-05 07:00:00 8.9 -- -- -- -- 0 -- -- --
2021-02-05 06:00:00 9.7 -- -- -- -- 0 -- -- --
2021-02-05 05:00:00 7.9 -- -- -- -- 0 -- -- --
2021-02-05 04:00:00 9.6 -- -- -- -- 0 -- -- --
2021-02-05 03:00:00 10.2 -- -- -- -- 0 -- -- --
2021-02-05 02:00:00 11 -- -- -- -- 0 -- -- --
2021-02-05 01:00:00 11 -- -- -- -- 0 -- -- --
2021-02-05 00:00:00 10.6 -- -- -- -- 0 -- -- --
2021-02-04 23:00:00 10.9 -- -- -- -- 0 -- -- --
2021-02-04 22:00:00 11.6 -- -- -- -- 0 -- -- --
2021-02-04 21:00:00 11.9 -- -- -- -- 0 -- -- --
2021-02-04 20:00:00 11.6 -- -- -- -- 0 -- -- --
2021-02-04 19:00:00 11.6 -- -- -- -- 0 -- -- --
2021-02-04 18:00:00 11.6 -- -- -- -- 0 -- -- --
2021-02-04 17:00:00 11.8 -- -- -- -- 0 -- -- --
2021-02-04 16:00:00 11.9 -- -- -- -- 0 -- -- --
2021-02-04 15:00:00 11.9 -- -- -- -- 0 -- -- --
2021-02-04 14:00:00 12.3 -- -- -- -- 0 -- -- --
2021-02-04 13:00:00 12.5 -- -- -- -- 0 -- -- --
2021-02-04 12:00:00 12.1 -- -- -- -- 0 -- -- --
2021-02-04 11:00:00 12.4 -- -- -- -- 0 -- -- --
2021-02-04 10:00:00 11.6 -- -- -- -- -- -- -- --
2021-02-04 09:00:00 10.8 0 Calma -- -- 0 -- -- --
2021-02-04 08:00:00 10.5 0 Calma -- -- 0 -- -- --
2021-02-04 07:00:00 10.2 0 Calma -- -- 0 -- -- --
2021-02-04 06:00:00 11.7 0 Calma -- -- 0 -- -- --
2021-02-04 05:00:00 10.9 0 Calma -- -- 0 -- -- --
2021-02-04 04:00:00 11.7 0 Calma -- -- 0 -- -- --
2021-02-04 03:00:00 11.4 0 Calma -- -- 0 -- -- --
2021-02-04 02:00:00 11.2 0 Calma -- -- 0 -- -- --
2021-02-04 01:00:00 11.2 0 Calma -- -- 0 -- -- --
2021-02-04 00:00:00 11.8 0 Calma -- -- 0 -- -- --
2021-02-03 23:00:00 12.2 0 Calma -- -- 0 -- -- --
2021-02-03 22:00:00 12.4 0 Calma -- -- 0 -- -- --
2021-02-03 21:00:00 12.3 0 Calma -- -- 0 -- -- --
2021-02-03 20:00:00 12.3 0 Calma -- -- 0 -- -- --
2021-02-03 19:00:00 12.3 0 Calma -- -- 0 -- -- --
2021-02-03 18:00:00 12.9 0 Calma -- -- 0 -- -- --
2021-02-03 17:00:00 13.4 0 Calma -- -- 0 -- -- --
2021-02-03 16:00:00 14 0 Calma -- -- 0 -- -- --
2021-02-03 15:00:00 16.2 0 Calma -- -- 0 -- -- --
2021-02-03 14:00:00 16.4 0 Calma -- -- 0 -- -- --
2021-02-03 13:00:00 15.2 0 Calma -- -- 0 -- -- --
2021-02-03 12:00:00 14.8 0 Calma -- -- 0 -- -- --
2021-02-03 11:00:00 13.6 0 Calma -- -- 0 -- -- --
2021-02-03 10:00:00 12.7 0 Calma -- -- 0 -- -- --
2021-02-03 09:00:00 12.8 0 Calma -- -- 0 -- -- --
2021-02-03 08:00:00 12.9 0 Calma -- -- 0 -- -- --
2021-02-03 07:00:00 13 0 Calma -- -- 0 -- -- --
2021-02-03 06:00:00 13.5 0 Calma -- -- 0 -- -- --
2021-02-03 05:00:00 13.8 0 Calma -- -- 0 -- -- --
2021-02-03 04:00:00 14 0 Calma -- -- 0 -- -- --
2021-02-03 03:00:00 12.8 0 Calma -- -- 0 -- -- --
2021-02-03 02:00:00 13.6 0 Calma -- -- 0.2 -- -- --
2021-02-03 01:00:00 13.1 0 Calma -- -- 0.2 -- -- --
2021-02-03 00:00:00 12.2 0 Calma -- -- 0.2 -- -- --
2021-02-02 23:00:00 12.6 0 Calma -- -- 0 -- -- --
2021-02-02 22:00:00 12.3 0 Calma -- -- 0.2 -- -- --
2021-02-02 21:00:00 12.3 0 Calma -- -- 0.1 -- -- --
2021-02-02 20:00:00 12.2 0 Calma -- -- 1.3 -- -- --
2021-02-02 19:00:00 12.4 0 Calma -- -- 1.9 -- -- --
2021-02-02 18:00:00 12.6 0 Calma -- -- 3.1 -- -- --
2021-02-02 17:00:00 12.9 0 Calma -- -- 0.2 -- -- --
2021-02-02 16:00:00 13.4 0 Calma -- -- 0 -- -- --
2021-02-02 15:00:00 14.1 0 Calma -- -- 0 -- -- --
2021-02-02 14:00:00 15.3 0 Calma -- -- 0.1 -- -- --
2021-02-02 13:00:00 15.8 0 Calma -- -- 0.1 -- -- --
2021-02-02 12:00:00 17.7 0 Calma -- -- 0 -- -- --
2021-02-02 11:00:00 16.6 0 Calma -- -- 0 -- -- --
2021-02-02 10:00:00 14.4 0 Calma -- -- 0.1 -- -- --
2021-02-02 09:00:00 13.4 0 Calma -- -- 0 -- -- --
2021-02-02 08:00:00 14.9 0 Calma -- -- 0 -- -- --
2021-02-02 07:00:00 14.9 0 Calma -- -- 0 -- -- --
2021-02-02 06:00:00 14.8 0 Calma -- -- 0 -- -- --
2021-02-02 05:00:00 14.2 0 Calma -- -- 0 -- -- --
2021-02-02 04:00:00 13.9 0 Calma -- -- 0 -- -- --
2021-02-02 03:00:00 14.3 0 Calma -- -- 0 -- -- --
2021-02-02 02:00:00 13.7 0 Calma -- -- 0 -- -- --
2021-02-02 01:00:00 14 0 Calma -- -- 0 -- -- --
2021-02-02 00:00:00 13.7 0 Calma -- -- 0 -- -- --
2021-02-01 23:00:00 13.9 0 Calma -- -- 0 -- -- --
2021-02-01 22:00:00 14 0 Calma -- -- 0 -- -- --
2021-02-01 21:00:00 15 0 Calma -- -- 0 -- -- --
2021-02-01 20:00:00 15.9 0 Calma -- -- 0 -- -- --
2021-02-01 19:00:00 15.3 0 Calma -- -- 0 -- -- --
2021-02-01 18:00:00 15.9 0 Calma -- -- 0 -- -- --
2021-02-01 17:00:00 17.4 0 Calma 39 Noroeste 0 -- -- --
2021-02-01 16:00:00 14.5 26 Norte 47 Noroeste 0 -- -- --
2021-02-01 15:00:00 13.9 21 Norte 57 Noroeste 0 -- -- --
2021-02-01 14:00:00 14.5 8 Nordeste 68 Noroeste 0 -- -- --
2021-02-01 13:00:00 13.9 26 Nordeste 64 Norte 0 -- -- --
2021-02-01 12:00:00 14.1 29 Norte 60 Nordeste 0 -- -- --
2021-02-01 11:00:00 13.7 25 Norte 63 Norte 0 -- -- --
2021-02-01 10:00:00 13.5 26 Nordeste 58 Norte 0 -- -- --
2021-02-01 09:00:00 13.4 19 Nordeste 71 Noroeste 0 -- -- --
2021-02-01 08:00:00 13.5 33 Norte 89 Nordeste 0 -- -- --
2021-02-01 07:00:00 13.4 31 Norte 82 Noroeste 0 -- -- --
2021-02-01 06:00:00 13.4 32 Norte 62 Noroeste 0 -- -- --
2021-02-01 05:00:00 13.4 30 Norte 83 Oeste 0 -- -- --
2021-02-01 04:00:00 14 33 Noroeste 91 Noroeste 0 -- -- --
2021-02-01 03:00:00 13.7 31 Norte 76 Oeste 0 -- -- --
2021-02-01 02:00:00 13.3 34 Norte 72 Este 0 -- -- --
2021-02-01 01:00:00 13.3 32 Sudeste 73 Este 0 -- -- --
2021-02-01 00:00:00 12.8 24 Sudeste 83 Este 0 -- -- --
2021-01-31 23:00:00 14 33 Noroeste 88 Noroeste 0 -- -- --
2021-01-31 22:00:00 14.5 8 Norte 87 Norte 0 -- -- --
2021-01-31 21:00:00 14.1 20 Este 90 Oeste 0 -- -- --
2021-01-31 20:00:00 14.4 39 Norte 85 Norte 0 -- -- --
2021-01-31 19:00:00 14 24 Nordeste 77 Norte 0 -- -- --
2021-01-31 18:00:00 17 27 Norte 73 Noroeste 0 -- -- --
2021-01-31 17:00:00 17.1 36 Noroeste 58 Oeste 0 -- -- --
2021-01-31 16:00:00 17.8 22 Noroeste 50 Sudoeste 0 -- -- --
2021-01-31 15:00:00 17.7 23 Noroeste 48 Noroeste 0 -- -- --
2021-01-31 14:00:00 14.5 21 Norte 54 Noroeste 0 -- -- --
2021-01-31 13:00:00 15.2 29 Norte 53 Noroeste 0 -- -- --
2021-01-31 12:00:00 14.3 26 Norte 60 Oeste 0 -- -- --
2021-01-31 11:00:00 14.8 37 Noroeste 68 Sur 0 -- -- --
2021-01-31 10:00:00 14.9 31 Norte 59 Noroeste 0.1 -- -- --
2021-01-31 09:00:00 13 24 Noroeste 41 Noroeste 0.1 -- -- --
2021-01-31 08:00:00 12.6 22 Oeste 36 Oeste 0 -- -- --
2021-01-31 07:00:00 11.9 22 Noroeste 38 Norte 0 -- -- --
2021-01-31 06:00:00 12.5 22 Norte 54 Noroeste 0 -- -- --
2021-01-31 05:00:00 12.6 35 Norte 65 Este 0 -- -- --
2021-01-31 04:00:00 12.1 27 Sudeste 76 Oeste 0 -- -- --
2021-01-31 03:00:00 11.7 43 Noroeste 80 Noroeste 0 -- -- --
2021-01-31 02:00:00 11.5 44 Noroeste 73 Oeste 0.2 -- -- --
2021-01-31 01:00:00 9.6 28 Oeste 84 Sudoeste 0 -- -- --
2021-01-31 00:00:00 10.1 34 Noroeste 80 Oeste 0.7 -- -- --
2021-01-30 23:00:00 9.6 25 Oeste 94 Oeste 1.4 -- -- --
2021-01-30 22:00:00 9.6 34 Noroeste 74 Noroeste 0.8 -- -- --
2021-01-30 21:00:00 9.4 15 Noroeste 80 Noroeste 1.7 -- -- --
2021-01-30 20:00:00 10.1 33 Norte 82 Nordeste 0.1 -- -- --
2021-01-30 19:00:00 10.8 6 Noroeste 98 Sudeste 0 -- -- --
2021-01-30 18:00:00 11.3 12 Oeste 109 Sur 0 -- -- --
2021-01-30 17:00:00 11.4 4 Noroeste 81 Este 0 -- -- --
2021-01-30 16:00:00 12.1 0 Calma 85 Oeste 0 -- -- --
2021-01-30 15:00:00 12 14 Noroeste 75 Este 0 -- -- --
2021-01-30 14:00:00 10.5 12 Noroeste 103 Noroeste 0.1 -- -- --
2021-01-30 13:00:00 10.2 7 Oeste 109 Oeste 2.4 -- -- --
2021-01-30 12:00:00 9.7 8 Norte 92 Nordeste 0.5 -- -- --
2021-01-30 11:00:00 12.5 17 Oeste 76 Sudeste 0 -- -- --
2021-01-30 10:00:00 12.3 14 Noroeste 63 Oeste 0 -- -- --
2021-01-30 09:00:00 12.4 18 Noroeste 67 Noroeste 0 -- -- --
2021-01-30 08:00:00 12.7 15 Oeste 68 Sur 0 -- -- --
2021-01-30 07:00:00 13.3 30 Norte 53 Noroeste 0 -- -- --
2021-01-30 06:00:00 12.7 25 Noroeste 40 Noroeste 0 -- -- --
2021-01-30 05:00:00 11.3 14 Noroeste 63 Oeste 0.2 -- -- --
2021-01-30 04:00:00 13.5 19 Noroeste 41 Noroeste 0 -- -- --
2021-01-30 03:00:00 13.3 21 Oeste 41 Sudoeste 0 -- -- --
2021-01-30 02:00:00 13.4 28 Noroeste 44 Sudoeste 0.6 -- -- --
2021-01-30 01:00:00 13.6 21 Norte 45 Norte 1.4 -- -- --
2021-01-30 00:00:00 13.9 9 Nordeste 21 Norte 0.3 -- -- --